Weather observations for the past three days for
Evansville, Evansville Regional Airport
Imperial (Metric)
Date Time (cdt) Wind (mph) Vis. (mi.) Weather Sky Cond. Temperature (ºF) Relative Humidity Wind Chill (°F) Heat Index (°F) Pressure Precipitation (in)
Air Dwpt 6 hour altimeter (in) sea level (mb) 1 hr 3 hr 6 hr
Max. Min.
20 15:54 N 6 10.00 Fair CLR 86 63 46% 87 30.05 1017.1
20 14:54 Calm 10.00 Mostly Cloudy FEW048 BKN070 84.9 62.1 46% 85 30.07 1017.8
20 13:54 NE 5 10.00 Partly Cloudy SCT060 84.9 62.1 46% 85 30.08 1018.3
20 12:54 E 5 10.00 Mostly Cloudy BKN060 82 60.1 84 69.1 47% 82 30.1 1018.7
20 11:54 NE 6 10.00 Mostly Cloudy FEW055 BKN075 84 63 49% 85 30.1 1018.9
20 10:54 Calm 10.00 Overcast OVC060 80.1 62.1 54% 81 30.11 1019.2
20 09:54 Vrbl 3 10.00 Fair CLR 79 62.1 56% 80 30.1 1018.8
20 08:54 E 6 10.00 Overcast OVC080 73.9 62.1 67% 30.1 1018.8
20 07:54 E 5 10.00 A Few Clouds FEW060 71.1 61 71% 30.1 1018.8
20 06:54 N 3 10.00 Fair CLR 68 60.1 68 63 76% 30.09 1018.7
20 05:54 NE 5 10.00 Fair CLR 64.9 59 81% 30.07 1018.0
20 04:54 NE 5 10.00 Fair CLR 66 60.1 81% 30.07 1017.8
20 03:54 N 6 10.00 Fair CLR 66 60.1 81% 30.08 1018.1
20 02:54 NE 3 10.00 Mostly Cloudy BKN065 66 61 84% 30.08 1018.3
20 00:54 N 3 10.00 Fair CLR 66 61 80.1 66 84% 30.08 1018.1
19 23:54 NE 3 10.00 Fair CLR 68 61 78% 30.08 1018.3
19 22:54 N 3 10.00 Fair CLR 71.1 61 71% 30.08 1018.3
19 21:54 N 3 10.00 Fair CLR 73 62.1 69% 30.09 1018.5
19 20:54 N 5 10.00 Partly Cloudy SCT060 73.9 62.1 67% 30.09 1018.4
19 19:54 N 6 10.00 Fair CLR 77 61 58% 79 30.07 1017.9
19 18:54 NE 6 10.00 Fair CLR 80.1 61 84 80.1 52% 81 30.07 1017.9
19 17:54 N 5 10.00 Partly Cloudy SCT055 82.9 60.1 46% 83 30.07 1017.8
19 16:54 NE 7 10.00 A Few Clouds FEW055 82.9 59 44% 83 30.07 1017.9
19 15:54 N 6 10.00 Partly Cloudy SCT060 84 59 43% 84 30.08 1018.2
19 14:54 Vrbl 3 10.00 A Few Clouds FEW050 82.9 59 44% 83 30.09 1018.6
19 13:54 NE 9 10.00 A Few Clouds FEW050 82 57.9 44% 82 30.12 1019.5
19 12:54 E 7 10.00 Partly Cloudy SCT050 80.1 57.9 81 64 47% 81 30.13 1019.9
19 11:54 Calm 10.00 Mostly Cloudy BKN041 BKN050 79 57.9 49% 80 30.15 1020.5
19 10:54 N 3 10.00 Fair CLR 78.1 60.1 54% 79 30.15 1020.7
19 09:54 N 7 10.00 Fair CLR 75 61 62% 77 30.16 1020.9
19 08:54 NE 6 10.00 Fair CLR 71.1 60.1 68% 30.17 1021.3
19 07:54 NE 7 10.00 Fair CLR 66.9 57.9 73% 30.16 1021.1
19 06:54 N 5 10.00 Fair CLR 64 57.9 64 60.1 81% 30.17 1021.2
19 05:54 N 5 10.00 Fair CLR 62.1 57 84% 30.15 1020.7
19 04:54 NE 5 10.00 Fair CLR 61 57 87% 30.14 1020.5
19 03:54 N 6 10.00 Fair CLR 62.1 57 84% 30.13 1020.0
19 02:54 N 6 10.00 Fair CLR 63 57.9 84% 30.14 1020.2
19 01:54 NE 7 10.00 Fair CLR 63 57.9 84% 30.14 1020.2
19 00:54 NE 6 10.00 Fair CLR 63 57 77 63 81% 30.14 1020.4
18 23:54 NE 5 10.00 Fair CLR 64 57.9 81% 30.15 1020.6
18 22:54 N 3 10.00 Fair CLR 66.9 57.9 73% 30.14 1020.4
18 21:54 N 5 10.00 Fair CLR 69.1 57.9 68% 30.13 1019.9
18 20:54 N 5 10.00 Fair CLR 70 57.9 66% 30.12 1019.7
18 19:54 N 8 10.00 Fair CLR 73.9 57 56% 30.11 1019.3
18 18:54 N 10 10.00 Fair CLR 77 55 81 77 47% 78 30.1 1019.0
18 17:54 N 10 10.00 Fair CLR 79 55.9 45% 80 30.1 1018.8
18 16:54 N 13 G 16 10.00 Partly Cloudy SCT050 80.1 55.9 44% 80 30.11 1019.2
18 15:54 N 10 G 21 10.00 Partly Cloudy SCT050 81 57 44% 81 30.12 1019.6
18 14:54 N 7 G 24 10.00 Partly Cloudy SCT070 81 55 41% 81 30.13 1019.8
18 13:54 N 8 10.00 Fair CLR 81 55.9 42% 81 30.13 1019.8
18 12:54 N 12 G 21 10.00 Fair CLR 80.1 55.9 80.1 68 44% 80 30.14 1020.1
18 11:54 NE 12 10.00 Fair CLR 78.1 55.9 47% 79 30.14 1020.3
18 10:54 N 12 10.00 Fair CLR 77 55.9 48% 79 30.14 1020.1
18 09:54 NE 10 10.00 Fair CLR 75.9 57 52% 78 30.12 1019.6
18 08:54 NE 12 10.00 A Few Clouds FEW044 73.9 57 56% 30.11 1019.4
18 07:54 NE 10 10.00 Fair CLR 71.1 59 66% 30.1 1018.9
18 06:54 NE 10 10.00 Fair CLR 68 60.1 73 66.9 76% 30.09 1018.5
18 05:54 N 8 10.00 Fair CLR 66.9 61 81% 30.07 1017.9
18 04:54 N 6 10.00 Fair CLR 68 62.1 81% 30.06 1017.4
18 03:54 N 6 10.00 Fair CLR 70 63 79% 30.04 1016.9
18 02:54 N 6 10.00 A Few Clouds FEW046 71.1 63 76% 30.03 1016.6
18 01:54 N 8 10.00 Fair CLR 72 63 73% 30.03 1016.4
18 00:54 N 8 10.00 Fair CLR 73 64 84 73 74% 30.02 1016.1
17 23:54 N 3 10.00 Fair CLR 73.9 64 71% 30.02 1016.2
17 22:54 N 5 10.00 Fair CLR 75.9 63 64% 78 30.02 1016.3
17 21:54 N 6 10.00 Fair CLR 77 64.9 66% 79 30.02 1016.1
17 20:54 N 7 10.00 Fair CLR 79 66 65% 81 29.99 1015.3
17 19:54 N 7 10.00 Mostly Cloudy BKN044 82 69.1 65% 85 29.96 1014.2
17 18:54 NW 5 10.00 Fair CLR 84 69.1 88 75.9 61% 88 29.93 1013.1 0.03
17 17:54 N 5 10.00 Fair CLR 82.9 73.9 74% 89 29.92 1012.6
17 16:54 Vrbl 3 10.00 Fair CLR 82.9 73.9 74% 89 29.93 1012.9
Date Time (cdt) Wind (mph) Vis. (mi.) Weather Sky Cond. Air Dwpt Max. Min. Relative Humidity Wind Chill (°F) Heat Index (°F) altimeter (in) sea level (mb) 1 hr 3 hr 6 hr
6 hour
Temperature (ºF) Pressure Precipitation (in)